No particular awareness of the weather is required.    There are no Weather-warnings


Meteo18 Weather Cam more information Meteo18 Weather Cam


Thunder radar more information blitzortung!


Rain radar more information rain snow radar


Visit our other weather sites:

Template documentation
and downloads

And another site



Weather Underground History page Text

Daily Summary for October 24, 2017 Units:  Metric    English   Both
« Previous Day
Next Day »
Daily Weekly Monthly Yearly Custom
  High: Low: Average:
Temperature: 15.3 °C 11.7 °C 13.6 °C
Dew Point: 14.7 °C 11.2 °C 13 °C
Humidity: 98 % 94 % 97 %
Wind Speed: 11.3 km/h 0.0 km/h 4.2 km/h
Wind Gust: 17.7 km/h - -
Wind:- - SW
Pressure: 1027.3 hPa 1026.0 hPa -
Precipitation: 0.5 mm    
Historical Graphs
 
 
Tabular Data for October 24, 2017
Time Temperature Dew Point Pressure Wind Wind Speed Wind Gust Humidity Rainfall Rate (Hourly)
00:07 11.7 °C 11.2 °C 1026.6 hPa SW 9.7 km/h 11.3 km/h 97 % 0.3 mm
00:12 11.7 °C 11.2 °C 1026.6 hPa SW 3.2 km/h 11.3 km/h 97 % 0.0 mm
00:17 11.7 °C 11.2 °C 1026.6 hPa SW 3.2 km/h 12.9 km/h 97 % 0.0 mm
00:22 11.7 °C 11.2 °C 1026.6 hPa SW 4.8 km/h 12.9 km/h 97 % 0.0 mm
00:27 11.8 °C 11.3 °C 1026.6 hPa SSW 3.2 km/h 12.9 km/h 97 % 0.0 mm
00:32 11.8 °C 11.3 °C 1026.6 hPa SW 6.4 km/h 11.3 km/h 97 % 0.0 mm
00:37 11.8 °C 11.3 °C 1026.6 hPa SW 4.8 km/h 11.3 km/h 97 % 0.0 mm
00:42 11.8 °C 11.3 °C 1026.6 hPa SW 8.0 km/h 11.3 km/h 97 % 0.0 mm
00:47 11.8 °C 11.3 °C 1026.6 hPa SSW 6.4 km/h 11.3 km/h 97 % 0.0 mm
00:52 11.8 °C 11.3 °C 1026.6 hPa SW 6.4 km/h 11.3 km/h 97 % 0.0 mm
01:02 11.9 °C 11.4 °C 1026.6 hPa WSW 9.7 km/h 11.3 km/h 97 % 0.0 mm
01:12 11.9 °C 11.4 °C 1026.3 hPa SW 3.2 km/h 12.9 km/h 97 % 0.0 mm
01:17 11.9 °C 11.4 °C 1026.3 hPa SW 11.3 km/h 12.9 km/h 97 % 0.0 mm
01:22 11.9 °C 11.4 °C 1026.3 hPa SW 8.0 km/h 12.9 km/h 97 % 0.0 mm
01:27 11.9 °C 11.4 °C 1026.3 hPa WSW 6.4 km/h 11.3 km/h 97 % 0.0 mm
01:37 12.0 °C 11.5 °C 1026.6 hPa WSW 4.8 km/h 12.9 km/h 97 % 0.0 mm
01:52 12.0 °C 11.5 °C 1026.3 hPa SSW 6.4 km/h 11.3 km/h 97 % 0.0 mm
02:02 12.0 °C 11.5 °C 1026.3 hPa SW 6.4 km/h 11.3 km/h 97 % 0.0 mm
02:07 12.0 °C 11.5 °C 1026.3 hPa SW 6.4 km/h 11.3 km/h 97 % 0.0 mm
02:12 12.0 °C 11.5 °C 1026.3 hPa WSW 4.8 km/h 9.7 km/h 97 % 0.0 mm
02:17 12.0 °C 11.5 °C 1026.3 hPa South 3.2 km/h 9.7 km/h 97 % 0.0 mm
02:22 12.0 °C 11.5 °C 1026.3 hPa SW 4.8 km/h 9.7 km/h 97 % 0.0 mm
02:27 12.0 °C 11.5 °C 1026.3 hPa SW 9.7 km/h 9.7 km/h 97 % 0.0 mm
02:32 12.0 °C 11.5 °C 1026.3 hPa SSW 9.7 km/h 9.7 km/h 97 % 0.0 mm
02:37 12.0 °C 11.5 °C 1026.3 hPa SSW 3.2 km/h 14.5 km/h 97 % 0.3 mm
02:42 12.1 °C 11.6 °C 1026.3 hPa SSW 3.2 km/h 14.5 km/h 97 % 0.3 mm
02:52 12.1 °C 11.6 °C 1026.3 hPa South 1.6 km/h 14.5 km/h 97 % 0.3 mm
02:57 12.1 °C 11.6 °C 1026.3 hPa SSW 4.8 km/h 11.3 km/h 97 % 0.3 mm
03:02 12.1 °C 11.6 °C 1026.3 hPa SW 4.8 km/h 11.3 km/h 97 % 0.3 mm
03:12 12.1 °C 11.6 °C 1026.3 hPa SW 4.8 km/h 14.5 km/h 97 % 0.3 mm
03:17 12.1 °C 11.6 °C 1026.3 hPa SW 3.2 km/h 9.7 km/h 97 % 0.3 mm
03:22 12.1 °C 11.6 °C 1026.3 hPa SSW 6.4 km/h 9.7 km/h 97 % 0.3 mm
03:27 12.1 °C 11.6 °C 1026.3 hPa SW 6.4 km/h 9.7 km/h 97 % 0.3 mm
03:32 12.1 °C 11.6 °C 1026.3 hPa SW 6.4 km/h 9.7 km/h 97 % 0.3 mm
03:42 12.1 °C 11.6 °C 1026.3 hPa SW 3.2 km/h 9.7 km/h 97 % 0.0 mm
03:47 12.2 °C 11.7 °C 1026.3 hPa SW 6.4 km/h 11.3 km/h 97 % 0.0 mm
03:52 12.2 °C 11.7 °C 1026.0 hPa South 3.2 km/h 11.3 km/h 97 % 0.0 mm
04:02 12.2 °C 11.7 °C 1026.0 hPa SSW 3.2 km/h 11.3 km/h 97 % 0.0 mm
04:07 12.2 °C 11.7 °C 1026.3 hPa SW 4.8 km/h 9.7 km/h 97 % 0.0 mm
04:12 12.2 °C 11.7 °C 1026.0 hPa SW 1.6 km/h 9.7 km/h 97 % 0.0 mm
04:17 12.2 °C 11.7 °C 1026.0 hPa SW 4.8 km/h 9.7 km/h 97 % 0.0 mm
04:22 12.2 °C 11.7 °C 1026.0 hPa SW 4.8 km/h 9.7 km/h 97 % 0.0 mm
04:27 12.2 °C 11.7 °C 1026.3 hPa SW 3.2 km/h 9.7 km/h 97 % 0.0 mm
04:32 12.3 °C 11.8 °C 1026.3 hPa SW 6.4 km/h 9.7 km/h 97 % 0.0 mm
04:42 12.3 °C 11.8 °C 1026.0 hPa SW 8.0 km/h 9.7 km/h 97 % 0.0 mm
04:47 12.3 °C 11.8 °C 1026.0 hPa SW 3.2 km/h 14.5 km/h 97 % 0.0 mm
04:57 12.3 °C 11.8 °C 1026.0 hPa SSW 3.2 km/h 14.5 km/h 97 % 0.0 mm
05:02 12.3 °C 11.8 °C 1026.0 hPa SSW 3.2 km/h 14.5 km/h 97 % 0.0 mm
05:12 12.3 °C 11.8 °C 1026.0 hPa SW 4.8 km/h 12.9 km/h 97 % 0.0 mm
05:22 12.4 °C 11.9 °C 1026.0 hPa WSW 8.0 km/h 9.7 km/h 97 % 0.0 mm
05:32 12.4 °C 11.9 °C 1026.0 hPa WSW 8.0 km/h 11.3 km/h 97 % 0.0 mm
05:42 12.4 °C 11.9 °C 1026.0 hPa SW 3.2 km/h 9.7 km/h 97 % 0.0 mm
05:47 12.4 °C 11.9 °C 1026.0 hPa SW 1.6 km/h 9.7 km/h 97 % 0.0 mm
05:52 12.4 °C 11.9 °C 1026.0 hPa SSW 3.2 km/h 9.7 km/h 97 % 0.0 mm
05:57 12.4 °C 11.9 °C 1026.0 hPa SW 3.2 km/h 8.0 km/h 97 % 0.0 mm
06:02 12.4 °C 11.9 °C 1026.0 hPa WSW 6.4 km/h 8.0 km/h 97 % 0.0 mm
06:12 12.5 °C 12.0 °C 1026.0 hPa Calm   8.0 km/h 97 % 0.0 mm
06:17 12.5 °C 12.0 °C 1026.0 hPa West 4.8 km/h 9.7 km/h 97 % 0.0 mm
06:22 12.5 °C 12.0 °C 1026.0 hPa SW 6.4 km/h 9.7 km/h 97 % 0.0 mm
06:27 12.5 °C 12.0 °C 1026.3 hPa SW 4.8 km/h 11.3 km/h 97 % 0.3 mm
06:32 12.5 °C 12.0 °C 1026.0 hPa WSW 3.2 km/h 11.3 km/h 97 % 0.3 mm
06:42 12.6 °C 12.1 °C 1026.0 hPa SSW 3.2 km/h 12.9 km/h 97 % 0.3 mm
06:52 12.5 °C 12.0 °C 1026.0 hPa WSW 6.4 km/h 12.9 km/h 97 % 0.3 mm
07:02 12.6 °C 12.1 °C 1026.0 hPa SW 1.6 km/h 12.9 km/h 97 % 0.3 mm
07:12 12.6 °C 12.1 °C 1026.3 hPa SSW 3.2 km/h 14.5 km/h 97 % 0.3 mm
07:17 12.6 °C 12.1 °C 1026.3 hPa Calm   14.5 km/h 97 % 0.3 mm
07:22 12.6 °C 12.1 °C 1026.3 hPa SSW 6.4 km/h 14.5 km/h 97 % 0.3 mm
07:32 12.6 °C 12.1 °C 1026.0 hPa SSW 6.4 km/h 8.0 km/h 97 % 0.0 mm
07:37 12.6 °C 12.1 °C 1026.0 hPa SW 4.8 km/h 17.7 km/h 97 % 0.0 mm
07:42 12.5 °C 12.0 °C 1026.0 hPa SW 1.6 km/h 17.7 km/h 97 % 0.0 mm
07:52 12.6 °C 12.1 °C 1026.0 hPa SW 4.8 km/h 9.7 km/h 97 % 0.0 mm
07:57 12.5 °C 12.0 °C 1026.0 hPa SW 4.8 km/h 12.9 km/h 97 % 0.0 mm
08:02 12.5 °C 12.0 °C 1026.0 hPa SW 1.6 km/h 12.9 km/h 97 % 0.0 mm
08:07 12.5 °C 12.0 °C 1026.0 hPa SW 1.6 km/h 11.3 km/h 97 % 0.0 mm
08:12 12.5 °C 12.0 °C 1026.3 hPa SSW 6.4 km/h 11.3 km/h 97 % 0.0 mm
08:17 12.5 °C 12.0 °C 1026.0 hPa SSW 6.4 km/h 9.7 km/h 97 % 0.0 mm
08:27 12.6 °C 12.1 °C 1026.3 hPa WSW 3.2 km/h 14.5 km/h 97 % 0.0 mm
08:32 12.6 °C 12.1 °C 1026.3 hPa SW 8.0 km/h 14.5 km/h 97 % 0.0 mm
08:37 12.6 °C 12.1 °C 1026.3 hPa WSW 9.7 km/h 12.9 km/h 97 % 0.0 mm
08:42 12.6 °C 12.1 °C 1026.3 hPa South 4.8 km/h 12.9 km/h 97 % 0.0 mm
08:47 12.6 °C 12.1 °C 1026.6 hPa WSW 6.4 km/h 12.9 km/h 97 % 0.0 mm
08:52 12.6 °C 12.1 °C 1026.6 hPa SW 4.8 km/h 12.9 km/h 97 % 0.0 mm
08:57 12.6 °C 12.1 °C 1026.6 hPa SW 8.0 km/h 11.3 km/h 97 % 0.0 mm
09:02 12.6 °C 12.1 °C 1026.6 hPa WSW 8.0 km/h 11.3 km/h 97 % 0.0 mm
09:12 12.6 °C 12.1 °C 1026.6 hPa South 3.2 km/h 11.3 km/h 97 % 0.0 mm
09:17 12.6 °C 12.1 °C 1027.0 hPa SW 3.2 km/h 9.7 km/h 97 % 0.0 mm
09:22 12.6 °C 12.1 °C 1027.0 hPa SW 4.8 km/h 9.7 km/h 97 % 0.0 mm
09:32 12.7 °C 12.2 °C 1027.0 hPa SSW 6.4 km/h 9.7 km/h 97 % 0.0 mm
09:37 12.7 °C 12.2 °C 1027.0 hPa SW 6.4 km/h 12.9 km/h 97 % 0.0 mm
09:42 12.7 °C 12.4 °C 1027.0 hPa SW 4.8 km/h 12.9 km/h 98 % 0.0 mm
09:52 12.8 °C 12.3 °C 1027.3 hPa SW 6.4 km/h 12.9 km/h 97 % 0.0 mm
10:02 12.8 °C 12.3 °C 1027.0 hPa South 6.4 km/h 12.9 km/h 97 % 0.0 mm
10:12 12.9 °C 12.6 °C 1027.0 hPa SW 9.7 km/h 12.9 km/h 98 % 0.0 mm
10:17 12.9 °C 12.6 °C 1027.0 hPa SW 4.8 km/h 12.9 km/h 98 % 0.0 mm
10:22 13.0 °C 12.7 °C 1027.0 hPa WSW 4.8 km/h 12.9 km/h 98 % 0.0 mm
10:32 13.1 °C 12.6 °C 1027.0 hPa SW 6.4 km/h 12.9 km/h 97 % 0.0 mm
10:42 13.2 °C 12.7 °C 1027.3 hPa WSW 4.8 km/h 11.3 km/h 97 % 0.0 mm
10:52 13.2 °C 12.7 °C 1027.0 hPa SW 3.2 km/h 11.3 km/h 97 % 0.0 mm
11:02 13.3 °C 12.8 °C 1027.0 hPa SW 6.4 km/h 11.3 km/h 97 % 0.0 mm
11:07 13.3 °C 12.8 °C 1027.0 hPa SW 1.6 km/h 11.3 km/h 97 % 0.0 mm
11:12 13.3 °C 12.8 °C 1027.3 hPa SW 9.7 km/h 11.3 km/h 97 % 0.0 mm
11:17 13.3 °C 12.8 °C 1027.3 hPa South 6.4 km/h 12.9 km/h 97 % 0.0 mm
11:22 13.4 °C 12.9 °C 1027.3 hPa SW 9.7 km/h 12.9 km/h 97 % 0.0 mm
11:32 13.4 °C 12.9 °C 1027.3 hPa SW 4.8 km/h 16.1 km/h 97 % 0.0 mm
11:37 13.4 °C 12.9 °C 1027.3 hPa WSW 6.4 km/h 16.1 km/h 97 % 0.0 mm
11:47 13.4 °C 12.9 °C 1027.3 hPa SW 6.4 km/h 12.9 km/h 97 % 0.0 mm
11:52 13.4 °C 12.9 °C 1027.3 hPa WSW 3.2 km/h 12.9 km/h 97 % 0.0 mm
12:02 13.5 °C 13.0 °C 1027.3 hPa WSW 1.6 km/h 11.3 km/h 97 % 0.0 mm
12:12 13.5 °C 13.0 °C 1027.3 hPa WSW 8.0 km/h 11.3 km/h 97 % 0.0 mm
12:17 13.6 °C 13.1 °C 1027.3 hPa WSW 11.3 km/h 14.5 km/h 97 % 0.0 mm
12:22 13.6 °C 13.1 °C 1027.3 hPa SW 3.2 km/h 14.5 km/h 97 % 0.0 mm
12:27 13.7 °C 13.2 °C 1027.3 hPa WSW 8.0 km/h 14.5 km/h 97 % 0.0 mm
12:42 13.9 °C 13.4 °C 1027.3 hPa SW 6.4 km/h 8.0 km/h 97 % 0.0 mm
12:52 14.0 °C 13.5 °C 1027.0 hPa SW 11.3 km/h 11.3 km/h 97 % 0.0 mm
12:57 14.0 °C 13.5 °C 1027.0 hPa SW 9.7 km/h 14.5 km/h 97 % 0.0 mm
13:02 14.0 °C 13.5 °C 1027.0 hPa SSE 3.2 km/h 14.5 km/h 97 % 0.0 mm
13:07 14.1 °C 13.5 °C 1027.0 hPa SW 4.8 km/h 14.5 km/h 96 % 0.0 mm
13:17 14.2 °C 13.6 °C 1027.0 hPa WSW 6.4 km/h 14.5 km/h 96 % 0.0 mm
13:22 14.3 °C 13.7 °C 1027.0 hPa WSW 4.8 km/h 14.5 km/h 96 % 0.0 mm
13:32 14.4 °C 13.8 °C 1027.0 hPa SW 3.2 km/h 12.9 km/h 96 % 0.0 mm
13:37 14.5 °C 13.9 °C 1027.0 hPa SW 4.8 km/h 11.3 km/h 96 % 0.0 mm
13:42 14.6 °C 14.0 °C 1027.0 hPa WSW 4.8 km/h 11.3 km/h 96 % 0.0 mm
13:52 14.8 °C 14.0 °C 1027.0 hPa SSW 4.8 km/h 12.9 km/h 95 % 0.0 mm
13:57 14.7 °C 13.9 °C 1026.6 hPa SSW 6.4 km/h 12.9 km/h 95 % 0.0 mm
14:07 14.8 °C 14.0 °C 1026.6 hPa WSW 9.7 km/h 12.9 km/h 95 % 0.0 mm
14:17 15.1 °C 14.3 °C 1026.6 hPa SW 3.2 km/h 12.9 km/h 95 % 0.0 mm
14:22 15.1 °C 14.1 °C 1026.6 hPa WSW 6.4 km/h 12.9 km/h 94 % 0.0 mm
14:32 15.0 °C 14.0 °C 1026.6 hPa WSW 3.2 km/h 12.9 km/h 94 % 0.0 mm
14:42 15.1 °C 14.1 °C 1026.6 hPa SSW 6.4 km/h 12.9 km/h 94 % 0.0 mm
14:47 15.0 °C 14.0 °C 1026.6 hPa WSW 4.8 km/h 9.7 km/h 94 % 0.0 mm
14:52 15.1 °C 14.3 °C 1026.3 hPa SW 3.2 km/h 9.7 km/h 95 % 0.0 mm
14:57 15.0 °C 14.2 °C 1026.3 hPa SW 4.8 km/h 12.9 km/h 95 % 0.0 mm
15:02 15.1 °C 14.3 °C 1026.3 hPa SW 4.8 km/h 12.9 km/h 95 % 0.0 mm
15:07 15.1 °C 14.3 °C 1026.3 hPa West 3.2 km/h 12.9 km/h 95 % 0.0 mm
15:12 15.1 °C 14.3 °C 1026.3 hPa SW 6.4 km/h 12.9 km/h 95 % 0.0 mm
15:17 15.1 °C 14.3 °C 1026.3 hPa WSW 8.0 km/h 9.7 km/h 95 % 0.0 mm
15:22 15.1 °C 14.3 °C 1026.3 hPa SW 4.8 km/h 9.7 km/h 95 % 0.0 mm
15:27 15.1 °C 14.3 °C 1026.3 hPa SW 9.7 km/h 9.7 km/h 95 % 0.0 mm
15:32 15.1 °C 14.3 °C 1026.3 hPa SW 4.8 km/h 9.7 km/h 95 % 0.0 mm
15:37 15.1 °C 14.3 °C 1026.3 hPa South 4.8 km/h 11.3 km/h 95 % 0.0 mm
15:42 15.1 °C 14.3 °C 1026.3 hPa West 8.0 km/h 11.3 km/h 95 % 0.0 mm
15:52 15.1 °C 14.3 °C 1026.3 hPa SW 9.7 km/h 12.9 km/h 95 % 0.0 mm
15:57 15.1 °C 14.3 °C 1026.3 hPa WSW 3.2 km/h 12.9 km/h 95 % 0.0 mm
16:02 15.1 °C 14.3 °C 1026.3 hPa WSW 6.4 km/h 12.9 km/h 95 % 0.0 mm
16:12 15.1 °C 14.3 °C 1026.3 hPa West 4.8 km/h 12.9 km/h 95 % 0.0 mm
16:22 15.1 °C 14.5 °C 1026.3 hPa SW 1.6 km/h 11.3 km/h 96 % 0.0 mm
16:27 15.1 °C 14.5 °C 1026.3 hPa SW 9.7 km/h 9.7 km/h 96 % 0.0 mm
16:32 15.1 °C 14.5 °C 1026.3 hPa SW 4.8 km/h 9.7 km/h 96 % 0.0 mm
16:37 15.1 °C 14.5 °C 1026.3 hPa West 1.6 km/h 9.7 km/h 96 % 0.0 mm
16:42 15.1 °C 14.5 °C 1026.3 hPa SW 8.0 km/h 9.7 km/h 96 % 0.0 mm
16:47 15.1 °C 14.5 °C 1026.3 hPa WSW 6.4 km/h 9.7 km/h 96 % 0.0 mm
16:52 15.1 °C 14.5 °C 1026.0 hPa SW 3.2 km/h 9.7 km/h 96 % 0.0 mm
16:57 15.2 °C 14.6 °C 1026.3 hPa SSW 3.2 km/h 9.7 km/h 96 % 0.0 mm
17:02 15.2 °C 14.6 °C 1026.3 hPa SW 3.2 km/h 9.7 km/h 96 % 0.0 mm
17:12 15.2 °C 14.6 °C 1026.3 hPa SSW 1.6 km/h 9.7 km/h 96 % 0.0 mm
17:17 15.3 °C 14.7 °C 1026.3 hPa SW 1.6 km/h 9.7 km/h 96 % 0.0 mm
17:27 15.3 °C 14.5 °C 1026.3 hPa SW 1.6 km/h 6.4 km/h 95 % 0.0 mm
17:37 15.2 °C 14.4 °C 1026.3 hPa South 3.2 km/h 8.0 km/h 95 % 0.0 mm
17:47 15.2 °C 14.6 °C 1026.3 hPa SSE 1.6 km/h 8.0 km/h 96 % 0.0 mm
17:52 15.2 °C 14.6 °C 1026.3 hPa South 1.6 km/h 8.0 km/h 96 % 0.0 mm
17:57 15.2 °C 14.6 °C 1026.3 hPa SSW 1.6 km/h 6.4 km/h 96 % 0.0 mm
18:02 15.1 °C 14.5 °C 1026.3 hPa SSW 3.2 km/h 6.4 km/h 96 % 0.0 mm
18:12 15.1 °C 14.5 °C 1026.6 hPa SW 3.2 km/h 6.4 km/h 96 % 0.0 mm
18:17 15.1 °C 14.5 °C 1026.6 hPa SW 1.6 km/h 6.4 km/h 96 % 0.0 mm
18:22 15.1 °C 14.5 °C 1026.6 hPa SSW 3.2 km/h 6.4 km/h 96 % 0.0 mm
18:27 15.1 °C 14.5 °C 1026.6 hPa SSW 3.2 km/h 6.4 km/h 96 % 0.0 mm
18:32 15.0 °C 14.4 °C 1026.6 hPa SW 3.2 km/h 4.8 km/h 96 % 0.0 mm
18:42 14.9 °C 14.3 °C 1026.6 hPa SSW 4.8 km/h 4.8 km/h 96 % 0.0 mm
18:47 14.9 °C 14.3 °C 1026.6 hPa SSW 3.2 km/h 4.8 km/h 96 % 0.0 mm
18:52 14.9 °C 14.3 °C 1026.6 hPa SW 1.6 km/h 4.8 km/h 96 % 0.0 mm
18:57 14.9 °C 14.4 °C 1026.6 hPa SW 1.6 km/h 4.8 km/h 97 % 0.0 mm
19:02 14.9 °C 14.4 °C 1026.6 hPa Calm   4.8 km/h 97 % 0.0 mm
19:12 14.8 °C 14.3 °C 1026.6 hPa SSW 1.6 km/h 4.8 km/h 97 % 0.0 mm
19:17 14.8 °C 14.3 °C 1026.6 hPa SW 3.2 km/h 3.2 km/h 97 % 0.0 mm
19:22 14.8 °C 14.3 °C 1026.6 hPa SSW 3.2 km/h 3.2 km/h 97 % 0.0 mm
19:27 14.8 °C 14.3 °C 1027.0 hPa SSW 3.2 km/h 6.4 km/h 97 % 0.0 mm
19:32 14.8 °C 14.3 °C 1027.0 hPa SSW 1.6 km/h 6.4 km/h 97 % 0.0 mm
19:37 14.8 °C 14.3 °C 1027.0 hPa SW 1.6 km/h 6.4 km/h 97 % 0.0 mm
19:42 14.7 °C 14.2 °C 1027.0 hPa SW 3.2 km/h 6.4 km/h 97 % 0.0 mm
19:47 14.7 °C 14.2 °C 1027.0 hPa SSW 3.2 km/h 4.8 km/h 97 % 0.0 mm
19:52 14.7 °C 14.2 °C 1027.0 hPa SSW 3.2 km/h 4.8 km/h 97 % 0.0 mm
19:57 14.7 °C 14.2 °C 1027.0 hPa SSW 1.6 km/h 4.8 km/h 97 % 0.0 mm
20:02 14.7 °C 14.2 °C 1027.0 hPa SSW 1.6 km/h 4.8 km/h 97 % 0.0 mm
20:07 14.6 °C 14.1 °C 1027.0 hPa SSW 3.2 km/h 4.8 km/h 97 % 0.0 mm
20:12 14.6 °C 14.1 °C 1027.0 hPa SSW 1.6 km/h 4.8 km/h 97 % 0.0 mm
20:17 14.6 °C 14.1 °C 1027.0 hPa SSW 1.6 km/h 4.8 km/h 97 % 0.0 mm
20:22 14.5 °C 14.0 °C 1027.0 hPa WSW 3.2 km/h 4.8 km/h 97 % 0.0 mm
20:32 14.4 °C 13.9 °C 1026.6 hPa SSW 1.6 km/h 6.4 km/h 97 % 0.0 mm
20:37 14.4 °C 13.9 °C 1026.6 hPa SW 3.2 km/h 6.4 km/h 97 % 0.0 mm
20:42 14.4 °C 13.9 °C 1026.6 hPa SSW 1.6 km/h 6.4 km/h 97 % 0.0 mm
20:47 14.3 °C 13.8 °C 1027.0 hPa WSW 3.2 km/h 4.8 km/h 97 % 0.0 mm
20:57 14.3 °C 13.8 °C 1026.6 hPa WSW 3.2 km/h 8.0 km/h 97 % 0.0 mm
21:02 14.3 °C 13.8 °C 1026.6 hPa SW 3.2 km/h 8.0 km/h 97 % 0.0 mm
21:07 14.3 °C 13.8 °C 1026.6 hPa SW 3.2 km/h 8.0 km/h 97 % 0.0 mm
21:12 14.2 °C 13.7 °C 1026.6 hPa SW 3.2 km/h 8.0 km/h 97 % 0.0 mm
21:17 14.2 °C 13.7 °C 1026.6 hPa South 1.6 km/h 6.4 km/h 97 % 0.0 mm
21:22 14.2 °C 13.7 °C 1026.6 hPa SSW 3.2 km/h 6.4 km/h 97 % 0.0 mm
21:32 14.2 °C 13.7 °C 1026.3 hPa Calm   4.8 km/h 97 % 0.0 mm
21:37 14.2 °C 13.7 °C 1026.3 hPa Calm   3.2 km/h 97 % 0.0 mm
21:42 14.2 °C 13.7 °C 1026.3 hPa Calm   3.2 km/h 97 % 0.0 mm
21:52 14.2 °C 13.7 °C 1026.3 hPa Calm   1.6 km/h 97 % 0.0 mm
22:02 14.2 °C 13.7 °C 1026.3 hPa Calm     97 % 0.0 mm
22:07 14.2 °C 13.7 °C 1026.3 hPa Calm     97 % 0.0 mm
22:12 14.2 °C 13.7 °C 1026.3 hPa Calm     97 % 0.0 mm
22:17 14.2 °C 13.7 °C 1026.3 hPa Calm     97 % 0.0 mm
22:22 14.2 °C 13.7 °C 1026.3 hPa Calm     97 % 0.0 mm
22:27 14.2 °C 13.7 °C 1026.3 hPa Calm     97 % 0.0 mm
22:32 14.2 °C 13.7 °C 1026.3 hPa Calm     97 % 0.0 mm
22:37 14.2 °C 13.7 °C 1026.6 hPa Calm     97 % 0.0 mm
22:42 14.2 °C 13.7 °C 1026.3 hPa Calm     97 % 0.0 mm
22:52 14.2 °C 13.7 °C 1026.3 hPa Calm     97 % 0.0 mm
22:57 14.2 °C 13.7 °C 1026.3 hPa Calm     97 % 0.0 mm
23:02 14.2 °C 13.7 °C 1026.3 hPa Calm     97 % 0.0 mm
23:12 14.1 °C 13.6 °C 1026.3 hPa Calm     97 % 0.0 mm
23:17 14.1 °C 13.6 °C 1026.3 hPa Calm     97 % 0.0 mm
23:22 14.1 °C 13.6 °C 1026.0 hPa Calm     97 % 0.0 mm
23:27 14.1 °C 13.6 °C 1026.0 hPa Calm     97 % 0.0 mm
23:32 14.1 °C 13.6 °C 1026.3 hPa SW 1.6 km/h   97 % 0.0 mm
23:37 14.1 °C 13.6 °C 1026.0 hPa Calm   3.2 km/h 97 % 0.0 mm
23:42 14.1 °C 13.6 °C 1026.0 hPa Calm   3.2 km/h 97 % 0.0 mm
23:47 14.1 °C 13.6 °C 1026.0 hPa Calm   3.2 km/h 97 % 0.0 mm
23:52 14.1 °C 13.6 °C 1026.0 hPa Calm   3.2 km/h 97 % 0.0 mm
23:57 14.1 °C 13.6 °C 1026.0 hPa Calm     97 % 0.0 mm
Meteo18
Compliments of Weather Underground - 4 mb

Script developed by  Jim McMurry - jmcmurry@mwt.net Adapted for the template by  Wim van der Kuil - Leuven-Template.eu

You find our weather info also at:

European Weather Network

Weather Underground

Equipment we use:

Weather-station
Davis Vue

Weather-program
Meteohub

Weather-server
Raspberry PI 2 B+

Provider
1 and 1

Davis Vue

Meteohub

Raspberry PI 2 B+

1 and 1